| time (UTC) | temp F | wind direction | speed MPH | gust MPH | rain 1hr in | rain 24hr in | rain mn in | humidity % | barometer mb |
| 20260510073055 | 60 | 179 | 0.0 | 3.0 | 0.00 | 0.00 | 0.00 | 81 | 1010.6 |
| 20260510071555 | 60 | 179 | 0.0 | 2.0 | 0.00 | 0.00 | 0.00 | 81 | 1010.4 |
| 20260510070056 | 60 | 180 | 0.0 | 0.0 | 0.00 | 0.00 | 0.00 | 82 | 1010.8 |
| 20260510064550 | 61 | 180 | 0.0 | 0.0 | 0.00 | 0.00 | 0.00 | 79 | 1011.0 |
| 20260510063047 | 61 | 180 | 0.0 | 0.0 | 0.00 | 0.00 | 0.00 | 76 | 1011.3 |
| 20260510061545 | 62 | 179 | 0.0 | 0.0 | 0.00 | 0.00 | 0.00 | 76 | 1011.4 |
| 20260510060051 | 61 | 180 | 0.0 | 0.0 | 0.00 | 0.00 | 0.00 | 77 | 1011.5 |
| 20260510054541 | 61 | 180 | 0.0 | 0.0 | 0.00 | 0.00 | 0.00 | 78 | 1011.3 |
| 20260510053041 | 60 | 180 | 0.0 | 0.0 | 0.00 | 0.00 | 0.00 | 77 | 1011.2 |
| 20260510051552 | 60 | 180 | 0.0 | 0.0 | 0.00 | 0.00 | 0.00 | 78 | 1010.9 |
| 20260510050038 | 60 | 180 | 0.0 | 0.0 | 0.00 | 0.00 | 0.00 | 77 | 1010.9 |
| 20260510044538 | 62 | 180 | 0.0 | 2.0 | 0.00 | 0.00 | 0.00 | 76 | 1010.7 |
| 20260510043042 | 62 | 180 | 0.0 | 0.0 | 0.00 | 0.00 | 0.00 | 70 | 1010.6 |
| 20260510041534 | 63 | 180 | 0.0 | 0.0 | 0.00 | 0.00 | 0.00 | 68 | 1010.4 |
| 20260510040033 | 63 | 180 | 0.0 | 0.0 | 0.00 | 0.00 | 0.00 | 67 | 1010.5 |
| 20260510034532 | 63 | 180 | 0.0 | 0.0 | 0.00 | 0.00 | 0.00 | 65 | 1010.3 |
| 20260510033030 | 64 | 180 | 0.0 | 0.0 | 0.00 | 0.00 | 0.00 | 64 | 1010.0 |
| 20260510031547 | 64 | 180 | 0.0 | 0.0 | 0.00 | 0.00 | 0.00 | 66 | 1009.7 |
| 20260510030029 | 65 | 180 | 0.0 | 0.0 | 0.00 | 0.00 | 0.00 | 59 | 1009.6 |
| 20260510024535 | 65 | 180 | 0.0 | 0.0 | 0.00 | 0.00 | 0.00 | 58 | 1009.3 |
| 20260510023042 | 66 | 180 | 0.0 | 0.0 | 0.00 | 0.02 | 0.00 | 56 | 1009.1 |
| 20260510021530 | 66 | 180 | 0.0 | 0.0 | 0.00 | 0.02 | 0.00 | 57 | 1008.8 |
| 20260510020029 | 67 | 180 | 0.0 | 3.0 | 0.00 | 0.02 | 0.00 | 56 | 1008.5 |
| 20260510014528 | 68 | 180 | 0.0 | 3.0 | 0.00 | 0.02 | 0.00 | 58 | 1008.2 |
| 20260510013028 | 69 | 98 | 0.0 | 0.0 | 0.00 | 0.10 | 0.00 | 56 | 1007.8 |
| 20260510011527 | 72 | 98 | 0.0 | 2.0 | 0.00 | 0.10 | 0.00 | 52 | 1007.7 |
| 20260510010029 | 74 | 98 | 1.0 | 3.0 | 0.00 | 0.10 | 0.00 | 44 | 1007.5 |
| 20260510004526 | 75 | 92 | 1.0 | 4.0 | 0.00 | 0.10 | 0.00 | 39 | 1007.3 |
| 20260510003026 | 75 | 95 | 2.0 | 4.0 | 0.00 | 0.10 | 0.00 | 40 | 1007.3 |
| 20260510001526 | 76 | 97 | 2.0 | 6.0 | 0.00 | 0.10 | 0.00 | 41 | 1007.3 |
| 20260510000026 | 77 | 93 | 2.0 | 6.0 | 0.00 | 0.10 | 0.00 | 40 | 1007.4 |
| 20260509234524 | 77 | 97 | 5.0 | 7.0 | 0.00 | 0.10 | 0.00 | 37 | 1007.6 |
| 20260509233022 | 78 | 121 | 2.0 | 5.0 | 0.00 | 0.10 | 0.00 | 35 | 1007.7 |
| 20260509231522 | 78 | 136 | 4.0 | 5.0 | 0.00 | 0.10 | 0.00 | 38 | 1007.9 |
| 20260509230021 | 78 | 128 | 4.0 | 8.0 | 0.00 | 0.10 | 0.00 | 36 | 1007.8 |
| 20260509224520 | 78 | 94 | 2.0 | 9.0 | 0.00 | 0.10 | 0.00 | 35 | 1007.8 |
| 20260509223025 | 80 | 121 | 0.0 | 4.0 | 0.00 | 0.10 | 0.00 | 34 | 1008.0 |
| 20260509221524 | 80 | 178 | 2.0 | 4.0 | 0.00 | 0.10 | 0.00 | 34 | 1007.9 |
| 20260509220018 | 80 | 188 | 1.0 | 5.0 | 0.00 | 0.10 | 0.00 | 32 | 1007.9 |
| 20260509214517 | 79 | 196 | 2.0 | 7.0 | 0.00 | 0.10 | 0.00 | 34 | 1007.9 |
| 20260509213017 | 80 | 167 | 3.0 | 5.0 | 0.00 | 0.10 | 0.00 | 35 | 1007.9 |
| 20260509211534 | 79 | 146 | 2.0 | 6.0 | 0.00 | 0.10 | 0.00 | 39 | 1008.1 |
| 20260509210017 | 79 | 157 | 0.0 | 5.0 | 0.00 | 0.10 | 0.00 | 40 | 1008.3 |
| 20260509204516 | 79 | 140 | 6.0 | 9.0 | 0.00 | 0.10 | 0.00 | 38 | 1008.5 |
| 20260509203033 | 80 | 315 | 1.0 | 4.0 | 0.00 | 0.10 | 0.00 | 36 | 1008.6 |
| 20260509201520 | 80 | 333 | 2.0 | 6.0 | 0.00 | 0.10 | 0.00 | 36 | 1008.7 |
| 20260509200013 | 79 | 150 | 1.0 | 5.0 | 0.00 | 0.10 | 0.00 | 35 | 1008.8 |
| 20260509194512 | 79 | 348 | 2.0 | 5.0 | 0.00 | 0.10 | 0.00 | 34 | 1008.8 |
| 20260509193012 | 79 | 22 | 2.0 | 7.0 | 0.00 | 0.10 | 0.00 | 36 | 1008.9 |
| 20260509191513 | 78 | 70 | 2.0 | 4.0 | 0.00 | 0.10 | 0.00 | 37 | 1009.0 |
| 20260509190011 | 78 | 81 | 4.0 | 11.0 | 0.00 | 0.10 | 0.00 | 41 | 1009.1 |
| 20260509184509 | 78 | 296 | 1.0 | 5.0 | 0.00 | 0.10 | 0.00 | 38 | 1009.1 |
| 20260509183012 | 77 | 119 | 1.0 | 8.0 | 0.00 | 0.10 | 0.00 | 41 | 1009.3 |
| 20260509181507 | 77 | 153 | 2.0 | 7.0 | 0.00 | 0.10 | 0.00 | 38 | 1009.3 |
| 20260509180003 | 77 | 226 | 3.0 | 7.0 | 0.00 | 0.10 | 0.00 | 46 | 1009.4 |
| 20260509174502 | 76 | 240 | 1.0 | 3.0 | 0.00 | 0.10 | 0.00 | 45 | 1009.4 |
| 20260509173108 | 76 | 284 | 1.0 | 8.0 | 0.00 | 0.10 | 0.00 | 50 | 1009.6 |
| 20260509171608 | 75 | 267 | 1.0 | 5.0 | 0.00 | 0.10 | 0.00 | 49 | 1009.7 |
| 20260509170054 | 74 | 170 | 1.0 | 5.0 | 0.00 | 0.10 | 0.00 | 62 | 1009.6 |
| 20260509164552 | 73 | 219 | 0.0 | 4.0 | 0.00 | 0.10 | 0.00 | 62 | 1009.6 |
| 20260509163059 | 73 | 147 | 2.0 | 4.0 | 0.00 | 0.10 | 0.00 | 61 | 1009.7 |
| 20260509161547 | 72 | 250 | 1.0 | 5.0 | 0.00 | 0.10 | 0.00 | 68 | 1009.9 |
| 20260509160045 | 71 | 277 | 1.0 | 6.0 | 0.00 | 0.10 | 0.00 | 73 | 1010.0 |
| 20260509154543 | 70 | 240 | 0.0 | 5.0 | 0.00 | 0.10 | 0.00 | 75 | 1009.9 |
| 20260509153040 | 69 | 248 | 3.0 | 6.0 | 0.00 | 0.10 | 0.00 | 76 | 1009.7 |
| 20260509151537 | 69 | 212 | 0.0 | 4.0 | 0.00 | 0.10 | 0.00 | 80 | 1009.9 |
| 20260509150134 | 67 | 237 | 1.0 | 4.0 | 0.00 | 0.10 | 0.00 | 81 | 1009.9 |
| 20260509144529 | 66 | 178 | 2.0 | 6.0 | 0.00 | 0.10 | 0.00 | 82 | 1009.8 |
| 20260509143029 | 65 | 219 | 0.0 | 4.0 | 0.00 | 0.10 | 0.00 | 87 | 1009.8 |
| 20260509141529 | 63 | 200 | 2.0 | 5.0 | 0.00 | 0.10 | 0.00 | 90 | 1009.7 |
| 20260509140022 | 62 | 179 | 1.0 | 4.0 | 0.00 | 0.10 | 0.00 | 93 | 1009.7 |
| 20260509134517 | 60 | 175 | 1.0 | 5.0 | 0.00 | 0.10 | 0.00 | 94 | 1009.5 |
| 20260509133014 | 59 | 188 | 2.0 | 4.0 | 0.00 | 0.10 | 0.00 | 95 | 1009.4 |
| 20260509131516 | 58 | 286 | 2.0 | 3.0 | 0.00 | 0.10 | 0.00 | 95 | 1009.3 |
| 20260509130014 | 56 | 325 | 1.0 | 3.0 | 0.00 | 0.10 | 0.00 | 95 | 1009.2 |
| 20260509124507 | 55 | 325 | 2.0 | 4.0 | 0.00 | 0.10 | 0.00 | 95 | 1009.1 |
| 20260509123007 | 54 | 325 | 0.0 | 0.0 | 0.00 | 0.10 | 0.00 | 95 | 1009.1 |
| 20260509121510 | 53 | 325 | 0.0 | 0.0 | 0.00 | 0.10 | 0.00 | 95 | 1008.9 |
| 20260509120013 | 52 | 325 | 0.0 | 0.0 | 0.00 | 0.10 | 0.00 | 95 | 1008.7 |
| 20260509114506 | 51 | 325 | 0.0 | 0.0 | 0.00 | 0.10 | 0.00 | 95 | 1008.6 |
| 20260509113006 | 51 | 325 | 0.0 | 0.0 | 0.00 | 0.10 | 0.00 | 95 | 1008.6 |
| 20260509111505 | 50 | 325 | 0.0 | 1.0 | 0.00 | 0.10 | 0.00 | 94 | 1008.4 |
| 20260509110003 | 51 | 325 | 0.0 | 1.0 | 0.00 | 0.10 | 0.00 | 94 | 1008.3 |
| 20260509104501 | 51 | 325 | 0.0 | 1.0 | 0.00 | 0.10 | 0.00 | 94 | 1008.1 |
| 20260509103100 | 52 | 325 | 0.0 | 2.0 | 0.00 | 0.10 | 0.00 | 94 | 1008.0 |
| 20260509101601 | 52 | 325 | 1.0 | 3.0 | 0.00 | 0.10 | 0.00 | 94 | 1008.0 |
| 20260509100111 | 52 | 346 | 1.0 | 3.0 | 0.00 | 0.10 | 0.00 | 94 | 1007.9 |
| 20260509094558 | 52 | 346 | 0.0 | 2.0 | 0.00 | 0.10 | 0.00 | 94 | 1008.2 |
| 20260509093058 | 51 | 346 | 0.0 | 0.0 | 0.00 | 0.10 | 0.00 | 94 | 1008.2 |
| 20260509091556 | 52 | 346 | 0.0 | 0.0 | 0.00 | 0.10 | 0.00 | 94 | 1008.3 |
| 20260509090055 | 52 | 346 | 0.0 | 0.0 | 0.00 | 0.10 | 0.00 | 94 | 1008.4 |
| 20260509084557 | 52 | 346 | 0.0 | 0.0 | 0.00 | 0.10 | 0.00 | 94 | 1008.5 |
| 20260509083051 | 52 | 346 | 0.0 | 0.0 | 0.00 | 0.10 | 0.00 | 94 | 1008.6 |
| 20260509081551 | 52 | 346 | 0.0 | 0.0 | 0.00 | 0.10 | 0.00 | 93 | 1008.7 |
| 20260509080117 | 53 | 346 | 0.0 | 0.0 | 0.00 | 0.10 | 0.00 | 93 | 1008.8 |
| 20260509074550 | 53 | 346 | 0.0 | 0.0 | 0.00 | 0.10 | 0.00 | 93 | 1008.8 |